Wind_Speed
7 6 5 5 3 4 3 5 3 6 1 9 15 6 11 12 5 4 20 31 32 29 28 27 26 24 24 24 24 25 25 27 28 27 25 24 22 21 20 19 18 16 16 16 16 16 16 16 16
8 7 4 1 3 2 5 5 7 3 10 15 18 11 11 3 9 18 34 29 31 30 30 29 28 27 27 26 25 26 26 27 26 25 24 22 20 19 18 16 16 15 14 15 15 15 14 15 15
7 8 4 4 4 6 5 5 10 11 19 17 7 17 13 6 14 35 28 34 33 32 31 29 28 28 28 26 26 26 26 26 25 24 21 20 18 17 16 14 13 13 13 13 13 14 15 16 15
5 4 4 2 9 6 6 6 10 10 17 15 9 14 10 10 30 25 34 33 33 33 31 30 29 29 28 26 26 26 26 25 24 22 20 18 16 14 14 13 12 11 11 11 12 13 15 15 13
6 3 1 3 6 3 3 9 10 4 8 9 6 9 8 19 18 30 30 31 33 33 32 31 30 29 28 26 26 25 25 24 22 20 18 16 14 13 12 12 11 10 9 10 10 11 12 12 12
4 2 2 5 5 3 4 19 9 7 10 5 5 20 24 18 25 30 26 30 30 33 33 32 31 29 28 26 25 25 24 23 21 18 16 14 13 12 12 11 10 10 9 9 10 11 11 11 11
6 4 5 6 5 6 6 13 8 3 10 9 15 17 10 32 29 30 26 26 30 31 32 32 31 30 27 25 24 23 23 21 19 17 15 14 13 12 11 11 11 11 11 12 11 11 10 10 9
5 5 4 5 6 6 10 11 9 3 9 23 20 7 21 38 32 29 27 25 26 29 30 31 32 30 28 25 23 21 21 20 18 16 15 14 14 12 13 11 11 11 10 11 11 10 9 8 8
6 2 5 7 3 4 15 7 8 5 10 13 2 31 25 37 39 35 32 29 26 28 28 29 30 29 27 24 22 21 20 19 18 17 17 15 14 14 14 12 11 9 10 11 10 7 6 4 8
6 4 8 8 4 9 12 10 12 6 22 11 25 57 32 42 41 41 39 35 30 30 31 30 29 28 26 25 23 21 20 19 18 17 17 14 13 12 9 10 9 9 10 9 5 2 4 3 4
6 6 7 19 26 25 3 8 11 12 6 13 32 20 18 29 40 40 38 32 28 27 32 31 30 28 26 25 22 21 20 19 19 20 18 13 12 9 7 5 4 5 6 7 4 4 4 4 1
6 15 16 23 28 25 8 9 11 17 12 35 33 29 40 31 40 40 37 31 27 26 31 30 29 28 25 22 21 20 20 19 19 18 19 15 12 11 10 6 10 8 11 11 8 8 6 5 6
7 10 28 34 32 25 3 10 14 20 32 37 38 37 40 34 36 39 35 30 28 26 30 29 29 28 26 20 16 21 20 17 16 16 19 19 16 14 11 12 15 14 14 12 11 9 10 11 9
18 15 17 17 20 13 10 16 14 19 45 54 43 38 49 48 41 44 40 35 31 28 32 29 27 26 23 18 17 21 20 19 19 20 17 18 20 20 17 17 17 16 14 15 16 16 16 14 11
9 7 10 8 6 5 4 8 13 50 35 35 25 31 39 44 40 44 44 40 36 33 31 31 29 26 24 23 20 23 22 24 25 24 22 20 22 22 18 19 20 19 19 19 19 18 17 15 11
7 4 6 6 8 12 6 9 6 46 37 36 35 35 42 43 48 40 40 42 38 38 37 33 36 38 25 27 27 23 27 26 28 28 25 21 19 23 23 22 23 23 21 18 16 15 16 16 14
5 4 7 11 3 5 6 9 11 41 35 34 36 37 41 45 46 44 41 43 42 37 41 42 39 43 32 31 29 28 29 29 28 27 25 22 21 21 24 24 22 21 18 15 14 14 15 15 14
6 4 5 7 8 0 3 8 18 37 33 36 36 34 36 36 46 46 43 45 44 40 44 45 41 43 40 34 31 30 29 28 27 26 24 22 23 22 22 22 21 19 16 15 14 15 16 14 12
6 5 8 13 14 2 9 6 11 31 28 22 25 31 27 31 35 37 41 46 44 44 44 46 44 41 40 41 37 35 33 32 32 29 26 20 19 20 19 18 18 18 16 15 15 15 15 11 7
13 13 13 11 13 7 7 8 2 19 29 37 32 25 32 33 35 36 40 43 45 43 45 44 41 38 37 40 37 37 37 33 29 26 23 19 17 18 17 16 16 16 15 16 15 14 14 11 10
5 6 8 13 9 2 3 9 7 5 8 25 23 38 38 47 42 55 55 56 54 51 51 48 43 39 38 38 36 33 33 32 29 25 20 17 16 17 19 17 16 15 14 14 12 12 13 11 12
6 10 16 15 6 5 5 4 13 15 22 22 30 21 20 64 54 68 67 64 60 53 50 48 42 39 39 37 36 37 36 33 28 23 19 14 13 14 17 16 15 14 12 11 10 10 12 12 12
5 10 10 6 6 5 10 4 7 16 16 21 24 26 28 31 32 50 68 64 57 54 53 46 40 35 34 34 32 33 32 31 28 23 17 13 12 13 13 13 12 11 9 9 9 10 10 11 11
11 12 6 4 3 4 1 2 5 6 6 11 19 30 38 38 26 34 31 36 48 49 48 44 40 34 32 33 33 35 34 32 26 19 15 11 10 9 9 9 9 9 7 8 10 11 10 11 11
14 8 5 7 7 3 11 6 3 0 4 5 13 26 37 44 27 38 31 38 43 48 43 40 37 35 37 33 31 29 28 24 20 17 15 11 10 9 8 7 8 8 8 9 9 11 12 10 9
5 4 4 3 3 5 3 2 5 3 10 9 21 26 33 42 25 8 25 33 33 43 42 39 38 36 28 25 22 18 16 19 18 15 12 9 9 6 6 7 7 8 8 10 11 12 14 11 9
7 6 5 3 2 2 4 1 4 17 20 29 28 33 34 31 30 17 10 15 37 42 37 36 39 31 23 21 22 21 22 21 19 14 13 14 10 7 4 5 8 10 10 10 10 12 12 13 11
7 7 6 4 3 4 3 4 6 15 15 14 19 20 26 24 20 18 14 8 18 29 35 21 19 23 22 21 21 21 18 16 17 16 20 17 11 7 4 7 10 12 11 10 11 10 11 9 10
6 5 5 1 1 2 3 2 4 5 9 11 14 16 13 11 18 15 13 20 24 15 22 26 21 18 14 14 16 17 17 16 16 19 19 15 9 4 4 8 11 11 10 11 11 11 9 9 9
4 0 3 4 6 3 2 3 6 5 7 12 14 16 4 9 16 22 23 21 20 18 21 10 8 9 11 13 15 14 15 14 15 16 16 14 11 9 9 11 12 13 12 10 10 11 11 9 8
Wind_Direction
285 312 316 295 59 59 286 245 309 255 134 17 356 314 153 134 136 198 144 160 172 161 157 158 156 151 144 140 139 140 136 134 130 127 124 121 119 117 116 114 108 105 103 101 96 92 94 103 114
273 292 311 164 98 141 251 295 273 250 42 8 356 357 319 97 139 148 152 171 171 162 159 159 156 152 146 143 141 141 139 137 134 130 126 122 118 116 115 112 110 106 102 98 92 89 95 104 113
261 280 218 155 158 203 213 209 260 58 59 27 6 341 311 152 160 150 160 163 164 162 160 159 156 153 148 146 145 143 142 141 139 135 131 126 121 116 114 113 110 103 99 96 90 90 100 109 115
218 206 227 164 232 252 190 202 237 133 71 44 53 299 297 189 149 162 157 164 163 163 162 159 158 154 151 150 148 146 145 143 143 141 135 129 121 116 114 113 110 107 103 99 93 96 102 105 111
224 215 242 230 242 254 187 182 205 359 102 61 88 257 284 171 160 159 161 169 168 163 162 159 159 156 155 153 151 150 149 149 148 144 138 132 124 119 116 114 112 110 109 107 102 99 99 101 105
207 182 127 236 220 136 201 196 188 142 123 82 234 254 267 186 166 160 164 168 171 165 163 160 160 159 157 156 155 155 154 154 151 147 142 135 127 122 116 110 105 101 102 102 105 108 105 103 99
163 99 221 233 246 194 219 188 197 219 122 160 215 211 185 163 170 164 167 170 173 169 166 163 163 162 162 162 160 160 159 157 155 151 145 137 128 122 117 110 103 96 95 94 99 111 108 96 86
210 121 247 245 259 256 221 154 202 323 220 201 192 238 189 167 168 164 164 162 173 173 172 168 167 167 167 166 165 162 161 158 156 150 143 135 129 119 121 113 106 102 100 100 101 108 104 79 48
206 107 237 247 235 212 152 196 214 14 74 178 216 296 203 160 172 167 168 167 170 177 177 174 173 170 169 168 165 164 161 158 155 150 142 133 128 120 108 101 107 104 106 102 94 102 102 65 70
167 157 226 229 229 277 180 190 187 156 97 16 334 304 190 175 176 172 174 172 176 181 181 180 177 174 173 173 171 168 166 163 159 153 144 146 141 134 126 114 108 110 117 107 81 87 162 131 77
208 206 229 273 276 276 213 160 168 127 114 178 229 55 179 180 178 178 177 180 180 184 184 183 180 179 177 179 177 175 172 169 167 165 163 163 161 164 165 153 144 142 143 165 185 187 176 190 317
244 264 245 259 263 267 268 142 142 170 168 185 204 184 182 187 179 180 180 182 180 183 187 184 183 181 179 181 184 181 179 176 176 174 179 175 173 178 184 167 157 193 201 192 205 212 217 223 263
188 248 260 261 262 262 277 154 146 144 155 162 164 180 183 199 184 183 191 193 186 189 183 182 183 179 172 170 183 184 179 177 175 177 185 191 191 199 199 191 188 188 191 207 223 235 255 261 265
277 270 269 286 270 248 131 132 112 165 161 161 160 182 188 192 196 185 188 195 194 194 185 177 183 184 178 178 173 175 182 184 186 192 195 200 201 200 199 202 205 213 220 226 232 244 263 261 260
280 329 327 293 266 255 128 149 159 170 177 187 197 197 194 194 196 202 194 195 197 196 189 184 185 185 185 191 200 194 200 197 203 206 206 206 208 208 208 211 214 224 234 245 253 260 262 261 262
352 40 4 311 317 270 122 267 187 179 183 193 202 191 191 194 197 195 200 195 193 191 190 193 186 188 188 192 200 200 195 197 199 204 212 216 221 224 224 228 235 242 250 251 255 260 267 272 274
351 261 300 314 264 259 150 262 174 178 185 191 195 196 197 194 196 201 200 199 195 192 195 196 195 195 190 185 186 189 185 191 199 207 216 223 234 236 232 234 238 243 249 254 258 265 271 280 282
246 259 260 263 287 86 298 252 160 189 194 188 192 193 194 196 200 201 201 201 197 196 194 195 197 195 199 194 197 197 203 207 213 220 227 236 244 240 230 232 240 247 252 256 261 271 274 271 266
242 270 262 270 275 310 262 262 206 193 193 203 196 200 194 195 197 197 195 197 194 196 195 196 193 197 204 201 202 205 210 214 223 228 233 230 229 233 232 232 237 245 254 262 269 270 266 258 228
267 255 270 284 265 173 286 309 359 170 206 207 202 197 190 172 166 169 172 175 186 191 196 196 196 200 205 208 205 209 213 217 224 226 228 231 228 237 239 237 243 251 258 266 269 259 244 231 196
4 41 299 268 284 111 16 331 336 139 327 221 223 195 178 167 181 187 185 190 195 198 199 203 199 197 198 205 210 208 210 216 218 221 226 233 234 239 244 246 248 255 260 262 257 241 230 222 192
19 338 335 326 334 275 72 259 52 23 36 27 8 351 214 183 204 195 192 196 198 206 200 200 195 193 199 210 212 216 214 214 219 227 225 229 232 230 236 243 248 251 245 241 235 225 221 216 202
310 334 319 313 301 66 15 49 354 28 8 356 355 347 337 276 231 197 196 195 197 202 198 196 199 196 198 207 215 218 217 216 214 211 214 213 233 233 230 232 233 234 229 224 212 206 211 211 216
327 349 17 360 34 72 323 236 347 24 354 336 343 344 341 327 254 223 220 193 194 197 194 196 198 198 203 209 211 214 210 210 203 196 204 208 220 217 213 215 214 214 208 200 197 195 200 212 214
3 31 359 353 7 270 357 18 200 228 10 340 336 345 358 353 299 217 201 193 193 190 188 190 192 198 203 206 200 197 200 207 210 204 201 209 220 203 203 207 206 199 192 181 178 185 191 193 202
343 47 137 241 246 278 320 209 151 27 22 356 18 16 12 18 28 186 198 185 180 181 183 187 187 176 174 177 188 190 187 187 189 194 174 201 186 159 161 181 182 179 169 163 162 167 175 177 179
313 6 203 144 334 326 269 270 103 10 14 4 9 13 17 29 36 58 103 159 174 182 177 180 164 158 168 176 177 175 178 184 182 180 201 194 179 169 182 184 174 170 158 151 156 158 159 170 170
75 326 15 7 165 251 302 71 18 358 351 358 7 359 16 26 50 50 81 85 115 143 153 154 139 139 156 160 166 171 176 180 186 189 182 178 178 180 187 182 173 166 159 142 151 153 147 157 163
1 17 8 170 70 323 315 9 326 313 321 336 350 9 29 53 68 82 93 111 112 134 141 139 126 134 147 164 163 168 173 174 161 158 166 171 182 196 193 179 172 171 165 152 146 148 147 148 145
109 162 111 120 289 259 203 243 314 304 1 12 359 357 81 112 127 132 124 125 124 126 139 121 277 184 172 165 159 168 173 177 175 171 176 180 185 183 178 167 160 160 169 156 144 138 138 134 130
Height
1529 1529 1528 1527 1537 1539 1543 1529 1517 1517 1515 1522 1523 1518 1507 1505 1511 1530 1519 1526 1533 1535 1537 1541 1544 1546 1548 1551 1552 1554 1556 1558 1558 1560 1562 1564 1564 1565 1566 1568 1569 1570 1571 1571 1572 1573 1573 1573 1573
1526 1527 1527 1527 1542 1549 1543 1523 1519 1512 1520 1520 1519 1521 1520 1514 1513 1515 1519 1526 1530 1534 1538 1540 1543 1545 1548 1551 1553 1554 1557 1559 1560 1561 1563 1565 1566 1567 1568 1570 1571 1571 1572 1573 1574 1574 1574 1575 1575
1525 1525 1527 1529 1542 1543 1537 1521 1513 1517 1518 1518 1523 1524 1526 1515 1514 1515 1519 1524 1529 1532 1537 1540 1543 1545 1547 1551 1553 1555 1557 1560 1561 1563 1564 1566 1567 1569 1570 1571 1572 1572 1573 1574 1575 1575 1576 1576 1577
1523 1525 1525 1529 1532 1517 1517 1514 1512 1516 1519 1527 1534 1533 1524 1516 1513 1516 1520 1524 1528 1531 1534 1538 1542 1545 1547 1550 1553 1555 1558 1561 1562 1564 1566 1567 1568 1570 1571 1572 1573 1573 1574 1575 1576 1576 1577 1578 1579
1520 1521 1528 1529 1522 1509 1509 1509 1506 1502 1517 1527 1531 1531 1526 1521 1516 1519 1523 1527 1527 1530 1534 1537 1540 1543 1547 1550 1553 1556 1558 1561 1563 1565 1566 1568 1568 1570 1572 1573 1574 1574 1574 1576 1576 1577 1578 1579 1580
1516 1517 1533 1533 1518 1508 1505 1505 1509 1507 1511 1521 1519 1528 1533 1522 1517 1523 1525 1529 1532 1532 1534 1537 1540 1543 1546 1550 1553 1556 1559 1561 1563 1565 1567 1568 1569 1570 1572 1573 1574 1575 1575 1576 1577 1577 1578 1579 1580
1513 1519 1526 1517 1511 1508 1503 1505 1508 1502 1507 1519 1524 1529 1532 1521 1519 1524 1528 1529 1532 1535 1537 1538 1541 1543 1547 1550 1553 1556 1559 1562 1563 1565 1567 1569 1569 1571 1572 1574 1574 1575 1576 1577 1578 1578 1578 1579 1581
1509 1512 1514 1511 1506 1510 1496 1505 1504 1507 1506 1507 1524 1528 1528 1518 1519 1527 1529 1531 1534 1535 1537 1540 1542 1544 1546 1550 1553 1556 1559 1561 1564 1566 1567 1569 1570 1571 1572 1573 1574 1575 1576 1577 1578 1578 1579 1579 1580
1506 1517 1522 1510 1503 1500 1502 1504 1502 1505 1508 1515 1524 1531 1534 1522 1518 1523 1528 1531 1533 1535 1537 1539 1542 1544 1547 1550 1553 1556 1558 1561 1564 1566 1567 1568 1570 1571 1573 1573 1574 1575 1576 1577 1578 1578 1579 1579 1580
1501 1514 1509 1495 1494 1493 1498 1498 1497 1502 1506 1519 1529 1521 1521 1521 1518 1518 1521 1524 1528 1531 1535 1538 1542 1544 1547 1550 1552 1555 1557 1559 1563 1565 1567 1568 1570 1571 1573 1573 1575 1576 1576 1577 1578 1577 1577 1578 1579
1495 1503 1494 1488 1488 1490 1491 1493 1496 1498 1504 1512 1526 1502 1529 1526 1521 1521 1523 1524 1526 1530 1534 1536 1540 1543 1545 1549 1552 1555 1557 1558 1561 1563 1565 1567 1569 1570 1571 1572 1574 1575 1575 1576 1576 1577 1577 1578 1579
1498 1488 1487 1483 1483 1484 1484 1487 1494 1493 1494 1501 1513 1515 1515 1524 1518 1518 1522 1525 1526 1530 1534 1537 1540 1541 1545 1549 1551 1554 1557 1559 1560 1562 1564 1566 1567 1568 1569 1570 1572 1572 1573 1573 1574 1576 1577 1577 1578
1490 1485 1481 1479 1479 1480 1482 1484 1489 1495 1493 1497 1497 1506 1505 1516 1519 1512 1515 1521 1524 1527 1532 1536 1539 1541 1544 1548 1549 1552 1556 1558 1560 1561 1563 1564 1565 1566 1567 1568 1569 1571 1571 1572 1572 1574 1575 1576 1576
1482 1480 1476 1473 1473 1475 1479 1488 1483 1503 1498 1494 1488 1482 1483 1496 1508 1511 1508 1515 1519 1524 1530 1533 1538 1542 1544 1547 1549 1551 1554 1557 1558 1559 1561 1563 1564 1563 1565 1567 1568 1569 1570 1570 1570 1571 1573 1573 1574
1479 1478 1472 1467 1467 1469 1470 1490 1488 1486 1492 1492 1485 1480 1489 1495 1505 1507 1507 1510 1517 1522 1527 1532 1536 1538 1540 1545 1548 1549 1552 1554 1555 1557 1559 1562 1562 1562 1563 1565 1566 1568 1568 1569 1569 1569 1570 1570 1572
1481 1480 1491 1468 1466 1462 1468 1484 1475 1478 1484 1485 1484 1482 1484 1489 1495 1499 1504 1509 1513 1517 1523 1530 1534 1536 1537 1539 1543 1544 1546 1550 1552 1555 1557 1559 1561 1561 1562 1563 1564 1566 1567 1568 1568 1568 1567 1567 1570
1488 1498 1490 1477 1464 1464 1465 1472 1472 1475 1476 1476 1477 1480 1481 1485 1491 1493 1495 1502 1509 1512 1518 1525 1529 1533 1535 1535 1540 1542 1543 1546 1549 1552 1554 1556 1557 1558 1558 1560 1560 1562 1564 1565 1565 1564 1564 1565 1567
1498 1492 1487 1485 1464 1461 1464 1465 1469 1473 1475 1470 1472 1477 1480 1484 1484 1488 1493 1499 1504 1509 1514 1521 1526 1528 1530 1532 1536 1539 1542 1544 1546 1549 1551 1554 1555 1554 1555 1557 1557 1558 1559 1560 1561 1560 1560 1561 1562
1483 1485 1487 1469 1459 1465 1464 1464 1463 1464 1466 1471 1469 1472 1478 1479 1484 1486 1488 1495 1504 1510 1513 1518 1520 1522 1523 1525 1529 1533 1536 1539 1542 1546 1548 1549 1551 1552 1552 1555 1555 1554 1555 1556 1557 1557 1556 1557 1559
1483 1485 1483 1470 1458 1464 1459 1460 1453 1463 1463 1460 1459 1468 1472 1475 1482 1488 1492 1493 1496 1505 1510 1510 1513 1517 1519 1522 1525 1529 1532 1534 1537 1541 1544 1546 1547 1549 1549 1551 1551 1552 1553 1553 1553 1553 1553 1555 1557
1481 1493 1491 1482 1459 1454 1457 1468 1461 1464 1467 1461 1464 1455 1463 1464 1478 1472 1470 1474 1483 1485 1492 1499 1500 1508 1516 1519 1522 1526 1528 1530 1532 1536 1539 1542 1543 1545 1545 1546 1547 1549 1550 1550 1550 1550 1550 1552 1554
1491 1479 1472 1467 1469 1485 1462 1497 1481 1479 1476 1482 1486 1481 1479 1442 1441 1452 1452 1457 1468 1475 1483 1491 1499 1499 1508 1513 1517 1521 1522 1525 1529 1533 1535 1537 1540 1542 1542 1543 1543 1545 1547 1547 1548 1548 1549 1550 1551
1489 1475 1473 1468 1470 1473 1494 1500 1506 1492 1487 1486 1486 1488 1481 1469 1467 1455 1444 1444 1455 1466 1476 1485 1493 1496 1504 1510 1513 1518 1522 1523 1525 1527 1531 1533 1534 1537 1538 1540 1542 1544 1544 1545 1545 1546 1547 1549 1550
1480 1477 1476 1475 1479 1501 1502 1506 1523 1509 1507 1498 1492 1484 1471 1462 1458 1459 1464 1459 1457 1465 1472 1480 1484 1492 1500 1505 1510 1512 1516 1518 1522 1525 1529 1531 1532 1534 1535 1539 1541 1542 1542 1543 1544 1545 1546 1547 1549
1484 1494 1516 1513 1516 1511 1495 1502 1514 1510 1508 1504 1499 1489 1475 1456 1433 1448 1459 1460 1454 1460 1471 1476 1481 1488 1495 1502 1506 1509 1512 1517 1520 1522 1526 1529 1532 1533 1534 1535 1538 1540 1540 1541 1543 1545 1545 1547 1548
1499 1500 1524 1533 1529 1519 1492 1505 1513 1507 1505 1503 1493 1489 1480 1466 1450 1449 1456 1459 1465 1466 1470 1474 1474 1482 1491 1498 1504 1510 1512 1514 1517 1519 1524 1531 1532 1533 1534 1534 1535 1538 1539 1540 1541 1543 1545 1547 1548
1502 1513 1501 1516 1512 1523 1511 1492 1495 1498 1496 1497 1489 1484 1484 1479 1471 1464 1464 1465 1461 1468 1470 1476 1466 1473 1486 1494 1502 1510 1511 1513 1515 1518 1526 1529 1530 1531 1534 1534 1534 1537 1539 1540 1541 1542 1544 1547 1548
1508 1505 1515 1523 1531 1531 1506 1507 1517 1507 1506 1504 1501 1498 1487 1486 1477 1478 1474 1476 1466 1467 1469 1477 1470 1466 1484 1495 1501 1509 1513 1516 1519 1518 1522 1527 1529 1532 1533 1534 1534 1537 1540 1541 1541 1542 1545 1547 1548
1518 1522 1520 1523 1524 1527 1527 1523 1517 1517 1512 1507 1505 1497 1494 1495 1486 1486 1483 1481 1481 1478 1476 1484 1484 1489 1494 1503 1506 1509 1515 1517 1522 1522 1524 1525 1529 1532 1532 1534 1536 1537 1541 1541 1540 1541 1545 1548 1549
1517 1522 1525 1537 1531 1527 1522 1523 1517 1517 1516 1510 1507 1502 1499 1492 1490 1485 1486 1485 1486 1491 1491 1486 1488 1493 1496 1514 1511 1517 1518 1520 1522 1521 1525 1524 1527 1528 1534 1534 1536 1536 1542 1541 1542 1541 1545 1547 1549